GW3247 Weather Reports


time (UTC)temp
C
wind
direction
speed
KPH
gust
KPH
rain 1hr
cm
rain 24hr
cm
rain mn
cm
humidity
%
barometer
mb
20260506211552 7 218 0.0 4.8 0.00 0.00 0.00 74 1013.5
20260506210052 7 253 1.6 4.8 0.00 0.00 0.00 73 1013.4
20260506204550 8 265 1.6 4.8 0.00 0.00 0.00 71 1013.3
20260506203048 8 244 3.2 9.7 0.00 0.00 0.00 69 1013.2
20260506201547 8 235 3.2 6.4 0.00 0.00 0.00 65 1013.0
20260506200047 8 236 4.8 6.4 0.00 0.00 0.00 62 1013.0
20260506194547 8 209 1.6 6.4 0.00 0.00 0.00 59 1012.9
20260506193045 9 218 0.0 4.8 0.00 0.00 0.00 57 1012.9
20260506191544 10 225 0.0 4.8 0.00 0.00 0.00 56 1012.8
20260506190044 10 217 1.6 4.8 0.00 0.00 0.00 54 1012.8
20260506184547 10 226 3.2 6.4 0.00 0.00 0.00 52 1012.5
20260506183039 11 212 3.2 9.7 0.00 0.00 0.00 51 1012.3
20260506181537 11 227 6.4 9.7 0.00 0.00 0.00 48 1011.8
20260506180037 12 196 8.0 16.1 0.00 0.00 0.00 46 1011.8
20260506174536 12 214 4.8 12.9 0.00 0.00 0.00 46 1011.7
20260506173050 12 245 8.0 12.9 0.00 0.00 0.00 45 1011.7
20260506171533 12 226 4.8 14.5 0.00 0.00 0.00 44 1011.6
20260506170036 12 241 6.4 16.1 0.00 0.00 0.00 43 1011.5
20260506164534 12 224 9.7 17.7 0.00 0.00 0.00 40 1011.5
20260506163036 12 217 8.0 19.3 0.00 0.00 0.00 39 1011.4
20260506161528 12 179 3.2 12.9 0.00 0.00 0.00 43 1011.5
20260506160026 12 268 3.2 9.7 0.00 0.00 0.00 43 1011.5
20260506154523 11 68 0.0 4.8 0.00 0.00 0.00 65 1011.6
20260506153022 11 65 1.6 9.7 0.00 0.00 0.00 68 1011.5
20260506151525 11 30 4.8 16.1 0.00 0.00 0.00 67 1011.5
20260506150019 11 59 9.7 27.4 0.00 0.00 0.00 68 1011.5
20260506144518 11 46 16.1 19.3 0.00 0.00 0.00 70 1011.4
20260506143024 11 18 12.9 19.3 0.00 0.00 0.00 72 1011.3
20260506141517 11 24 12.9 17.7 0.00 0.00 0.00 72 1011.4
20260506140017 11 28 11.3 17.7 0.00 0.00 0.00 70 1011.2
20260506134516 11 44 6.4 20.9 0.00 0.00 0.00 70 1011.2
20260506133016 11 38 11.3 20.9 0.00 0.00 0.00 71 1011.2
20260506131527 11 42 17.7 22.5 0.00 0.00 0.00 72 1010.9
20260506130016 11 30 17.7 24.1 0.00 0.00 0.00 72 1010.9
20260506124513 10 37 19.3 22.5 0.00 0.00 0.00 72 1011.0
20260506123013 11 35 17.7 20.9 0.00 0.00 0.00 72 1010.9
20260506121512 11 32 14.5 17.7 0.00 0.00 0.00 70 1010.9
20260506120015 11 37 9.7 12.9 0.00 0.00 0.00 68 1011.0
20260506114509 11 40 8.0 9.7 0.00 0.00 0.00 67 1011.1
20260506113006 11 39 4.8 8.0 0.00 0.00 0.00 66 1011.0
20260506111600 11 60 3.2 9.7 0.00 0.00 0.00 68 1011.0
20260506110103 11 35 8.0 12.9 0.00 0.00 0.00 68 1011.2
20260506104557 10 51 9.7 11.3 0.00 0.00 0.00 69 1011.2
20260506103058 10 31 11.3 16.1 0.00 0.00 0.00 69 1011.2
20260506101559 10 45 11.3 16.1 0.00 0.00 0.00 69 1011.2
20260506100109 10 10 12.9 17.7 0.00 0.00 0.00 71 1011.1
20260506094551 10 26 11.3 14.5 0.00 0.00 0.00 69 1011.1
20260506093051 10 41 9.7 14.5 0.00 0.00 0.00 68 1011.2
20260506091548 10 31 8.0 11.3 0.00 0.00 0.00 66 1011.1
20260506090046 10 34 8.0 11.3 0.00 0.00 0.00 66 1011.0
20260506084607 9 30 4.8 8.0 0.00 0.00 0.00 66 1011.1
20260506083044 9 32 4.8 9.7 0.00 0.00 0.00 63 1011.0
20260506081549 8 53 1.6 4.8 0.00 0.00 0.00 64 1010.9
20260506073045 8 109 3.2 9.7 0.00 0.00 0.00 65 1011.1
20260506071538 8 109 6.4 11.3 0.00 0.00 0.00 63 1011.1
20260506061529 7 86 3.2 8.0 0.00 0.00 0.00 59 1011.3
20260506044548 7 97 6.4 14.5 0.00 0.00 0.00 58 1011.5
20260506043016 7 143 9.7 14.5 0.00 0.00 0.00 57 1011.4
20260506041515 7 89 4.8 11.3 0.00 0.00 0.00 61 1011.4
20260506040013 7 74 9.7 16.1 0.00 0.00 0.00 59 1011.2
20260506034530 8 68 11.3 16.1 0.00 0.00 0.00 58 1011.2
20260506033010 8 71 9.7 14.5 0.00 0.00 0.00 58 1011.3
20260506031509 8 56 11.3 17.7 0.00 0.00 0.00 60 1011.3
20260506030006 7 78 9.7 17.7 0.00 0.00 0.00 60 1011.5
20260506024505 8 68 14.5 19.3 0.00 0.00 0.00 57 1011.5
20260506023003 8 71 14.5 20.9 0.00 0.00 0.00 56 1011.7
20260506021502 8 87 12.9 19.3 0.00 0.00 0.00 56 1011.9
20260506020100 8 83 9.7 20.9 0.00 0.00 0.00 59 1011.9
20260506014558 8 77 14.5 19.3 0.00 0.00 0.00 61 1011.9
20260506013055 8 72 8.0 17.7 0.00 0.00 0.00 61 1011.9
20260506011612 8 80 12.9 19.3 0.00 0.00 0.00 57 1011.8
20260506010059 8 86 11.3 24.1 0.00 0.00 0.00 58 1011.8
20260506004603 9 68 16.1 25.7 0.00 0.00 0.00 52 1011.6
20260506003101 9 67 19.3 25.7 0.00 0.00 0.00 52 1011.5
20260506001542 9 49 17.7 25.7 0.00 0.00 0.00 57 1011.6
20260506000040 9 69 20.9 27.4 0.00 0.00 0.00 54 1011.5
20260505234558 10 72 22.5 29.0 0.00 0.00 0.00 57 1011.5
20260505233039 10 63 20.9 29.0 0.00 0.00 0.00 57 1011.7
20260505231536 10 60 19.3 29.0 0.00 0.00 0.00 62 1011.4
20260505230040 10 56 22.5 29.0 0.00 0.00 0.00 60 1011.5
20260505224530 10 63 17.7 24.1 0.00 0.00 0.00 66 1011.6
20260505223027 10 60 19.3 25.7 0.00 0.00 0.00 66 1011.8
20260505221524 10 53 17.7 25.7 0.00 0.00 0.00 65 1011.8
20260505220029 10 56 19.3 24.1 0.00 0.00 0.00 66 1011.9
20260505214523 10 49 14.5 20.9 0.00 0.00 0.00 68 1012.0
20260505213019 10 53 14.5 19.3 0.00 0.00 0.00 66 1011.9